• In Österreich
  • Länderverzeichnis
  • Für 7 Tage
  • Wassertemperatur
  • Satellitenkarten
  • Wetterkarte
  • News
  • Widgets
  • user-avatar
    Anmelden

    Stündliche Wetter Kursko

    Heute, 22 April, Sonntag

    Zeit Temperatur Niederschläge Wind Luftdruck Luftfeuchtigkeit
    00:00 +10°C° 0 mm 1 m/S 758 mmHg 69%
    01:00 +9°C° 0 mm 0 m/S 758 mmHg 70%
    02:00 +8°C° 0 mm 0 m/S 758 mmHg 72%
    03:00 +8°C° 0 mm 0 m/S 758 mmHg 73%
    04:00 +8°C° 0 mm 0 m/S 758 mmHg 75%
    05:00 +9°C° 0 mm 0 m/S 758 mmHg 71%
    06:00 +10°C° 0 mm 0 m/S 758 mmHg 67%
    07:00 +11°C° 0 mm 0 m/S 758 mmHg 63%
    08:00 +13°C° 0 mm 0 m/S 757 mmHg 57%
    09:00 +16°C° 0 mm 1 m/S 757 mmHg 51%
    10:00 +19°C° 0 mm 1 m/S 757 mmHg 45%
    11:00 +21°C° 0 mm 1 m/S 757 mmHg 41%
    12:00 +20°C° 0 mm 0 m/S 757 mmHg 38%
    13:00 +21°C° 0 mm 0 m/S 756 mmHg 35%
    14:00 +21°C° 0 mm 0 m/S 756 mmHg 34%
    15:00 +21°C° 0 mm 0 m/S 755 mmHg 34%
    16:00 +21°C° 0 mm 0 m/S 755 mmHg 33%
    17:00 +21°C° 0 mm 1 m/S 755 mmHg 39%
    18:00 +20°C° 0 mm 1 m/S 754 mmHg 44%
    19:00 +17°C° 0 mm 2 m/S 754 mmHg 49%
    20:00 +16°C° 0 mm 2 m/S 754 mmHg 51%
    21:00 +15°C° 0 mm 2 m/S 754 mmHg 53%
    22:00 +13°C° 0 mm 3 m/S 754 mmHg 55%
    23:00 +13°C° 0 mm 3 m/S 754 mmHg 57%

    Morgen, 23 April, Montag

    Zeit Temperatur Niederschläge Wind Luftdruck Luftfeuchtigkeit
    00:00 +13°C° 0 mm 3 m/S 753 mmHg 59%
    01:00 +12°C° 0 mm 3 m/S 753 mmHg 61%
    02:00 +12°C° 0,1 mm 3 m/S 753 mmHg 64%
    03:00 +12°C° 0,1 mm 3 m/S 752 mmHg 67%
    04:00 +12°C° 0,1 mm 3 m/S 752 mmHg 70%
    05:00 +13°C° 0,1 mm 3 m/S 752 mmHg 72%
    06:00 +14°C° 0,1 mm 3 m/S 751 mmHg 75%
    07:00 +16°C° 0,1 mm 3 m/S 751 mmHg 77%
    08:00 +17°C° 0,2 mm 4 m/S 751 mmHg 76%
    09:00 +19°C° 0,2 mm 4 m/S 751 mmHg 74%
    10:00 +21°C° 0,2 mm 4 m/S 751 mmHg 72%
    11:00 +21°C° 0,7 mm 4 m/S 751 mmHg 69%
    12:00 +22°C° 0,7 mm 5 m/S 751 mmHg 65%
    13:00 +22°C° 0,7 mm 6 m/S 751 mmHg 62%
    14:00 +21°C° 0,7 mm 6 m/S 751 mmHg 64%
    15:00 +21°C° 0,7 mm 6 m/S 751 mmHg 66%
    16:00 +20°C° 0,7 mm 6 m/S 751 mmHg 69%
    17:00 +19°C° 0,1 mm 5 m/S 752 mmHg 71%
    18:00 +17°C° 0,1 mm 4 m/S 752 mmHg 74%
    19:00 +16°C° 0,1 mm 3 m/S 753 mmHg 76%
    20:00 +14°C° 0 mm 3 m/S 753 mmHg 78%
    21:00 +13°C° 0 mm 3 m/S 754 mmHg 79%
    22:00 +13°C° 0 mm 2 m/S 754 mmHg 81%
    23:00 +12°C° 0 mm 2 m/S 755 mmHg 83%

    übermorgen, 24 April, Dienstag

    Zeit Temperatur Niederschläge Wind Luftdruck Luftfeuchtigkeit
    00:00 +10°C° 0 mm 2 m/S 755 mmHg 85%
    01:00 +9°C° 0 mm 2 m/S 755 mmHg 87%
    02:00 +9°C° 0 mm 2 m/S 755 mmHg 88%
    03:00 +8°C° 0 mm 3 m/S 755 mmHg 88%
    04:00 +8°C° 0 mm 3 m/S 756 mmHg 89%
    05:00 +8°C° 0 mm 3 m/S 756 mmHg 84%
    06:00 +8°C° 0 mm 4 m/S 756 mmHg 79%
    07:00 +10°C° 0 mm 4 m/S 756 mmHg 74%
    08:00 +11°C° 0 mm 4 m/S 756 mmHg 67%
    09:00 +13°C° 0 mm 5 m/S 756 mmHg 60%
    10:00 +14°C° 0 mm 5 m/S 756 mmHg 53%
    11:00 +16°C° 0 mm 5 m/S 756 mmHg 50%
    12:00 +17°C° 0 mm 5 m/S 755 mmHg 47%
    13:00 +19°C° 0 mm 5 m/S 755 mmHg 44%
    14:00 +19°C° 0,1 mm 5 m/S 755 mmHg 48%
    15:00 +17°C° 0,1 mm 5 m/S 754 mmHg 51%
    16:00 +17°C° 0,1 mm 5 m/S 754 mmHg 54%
    17:00 +17°C° 0,3 mm 4 m/S 754 mmHg 63%
    18:00 +14°C° 0,3 mm 3 m/S 754 mmHg 71%
    19:00 +14°C° 0,3 mm 2 m/S 754 mmHg 79%
    20:00 +14°C° 0 mm 2 m/S 754 mmHg 82%
    21:00 +13°C° 0 mm 2 m/S 754 mmHg 84%
    22:00 +12°C° 0 mm 2 m/S 754 mmHg 86%
    23:00 +12°C° 0 mm 2 m/S 754 mmHg 87%

    25 April, Mittwoch

    Zeit Temperatur Niederschläge Wind Luftdruck Luftfeuchtigkeit
    00:00 +12°C° 0 mm 2 m/S 754 mmHg 87%
    01:00 +12°C° 0 mm 2 m/S 754 mmHg 88%
    02:00 +10°C° 0 mm 2 m/S 753 mmHg 89%
    03:00 +10°C° 0 mm 2 m/S 753 mmHg 90%
    04:00 +10°C° 0 mm 2 m/S 753 mmHg 91%
    05:00 +12°C° 0 mm 2 m/S 752 mmHg 87%
    06:00 +12°C° 0 mm 3 m/S 752 mmHg 82%
    07:00 +13°C° 0 mm 3 m/S 752 mmHg 78%
    08:00 +15°C° 0 mm 4 m/S 751 mmHg 69%
    09:00 +17°C° 0 mm 5 m/S 751 mmHg 60%
    10:00 +21°C° 0 mm 5 m/S 751 mmHg 52%
    11:00 +22°C° 0 mm 6 m/S 750 mmHg 49%
    12:00 +23°C° 0 mm 6 m/S 749 mmHg 47%
    13:00 +24°C° 0 mm 7 m/S 749 mmHg 45%
    14:00 +24°C° 0 mm 7 m/S 748 mmHg 45%
    15:00 +24°C° 0 mm 6 m/S 748 mmHg 44%
    16:00 +24°C° 0 mm 6 m/S 748 mmHg 44%
    17:00 +22°C° 0,1 mm 6 m/S 748 mmHg 51%
    18:00 +20°C° 0,1 mm 5 m/S 748 mmHg 59%
    19:00 +18°C° 0,1 mm 4 m/S 748 mmHg 66%
    20:00 +17°C° 0 mm 4 m/S 748 mmHg 70%
    21:00 +15°C° 0 mm 4 m/S 749 mmHg 73%
    22:00 +13°C° 0 mm 4 m/S 749 mmHg 77%
    23:00 +12°C° 0 mm 4 m/S 750 mmHg 79%

    26 April, Donnerstag

    Zeit Temperatur Niederschläge Wind Luftdruck Luftfeuchtigkeit
    00:00 +11°C° 0 mm 4 m/S 750 mmHg 81%
    01:00 +11°C° 0 mm 4 m/S 751 mmHg 83%
    02:00 +9°C° 0 mm 3 m/S 751 mmHg 84%
    03:00 +8°C° 0 mm 3 m/S 752 mmHg 86%
    04:00 +7°C° 0 mm 3 m/S 752 mmHg 88%
    05:00 +8°C° 0 mm 3 m/S 752 mmHg 84%
    06:00 +8°C° 0 mm 2 m/S 752 mmHg 80%
    07:00 +9°C° 0 mm 2 m/S 753 mmHg 76%
    08:00 +10°C° 0 mm 3 m/S 753 mmHg 68%
    09:00 +12°C° 0 mm 3 m/S 753 mmHg 60%
    10:00 +14°C° 0 mm 4 m/S 753 mmHg 52%
    11:00 +15°C° 0 mm 4 m/S 752 mmHg 50%
    12:00 +15°C° 0 mm 4 m/S 752 mmHg 48%
    13:00 +16°C° 0 mm 5 m/S 752 mmHg 47%
    14:00 +15°C° 0,2 mm 5 m/S 752 mmHg 52%
    15:00 +14°C° 0,2 mm 5 m/S 752 mmHg 57%
    16:00 +13°C° 0,2 mm 4 m/S 752 mmHg 62%
    17:00 +13°C° 0 mm 4 m/S 752 mmHg 64%
    18:00 +12°C° 0 mm 3 m/S 752 mmHg 65%
    19:00 +12°C° 0 mm 2 m/S 753 mmHg 67%
    20:00 +10°C° 0 mm 2 m/S 753 mmHg 68%
    21:00 +10°C° 0 mm 2 m/S 754 mmHg 69%
    22:00 +9°C° 0 mm 2 m/S 754 mmHg 70%
    23:00 +9°C° 0 mm 2 m/S 754 mmHg 72%

    27 April, Freitag

    Zeit Temperatur Niederschläge Wind Luftdruck Luftfeuchtigkeit
    00:00 +8°C° 0 mm 2 m/S 754 mmHg 74%
    01:00 +9°C° 0 mm 1 m/S 754 mmHg 76%
    02:00 +9°C° 0 mm 1 m/S 754 mmHg 78%
    03:00 +8°C° 0 mm 1 m/S 754 mmHg 80%
    04:00 +8°C° 0 mm 1 m/S 754 mmHg 82%
    05:00 +7°C° 0 mm 2 m/S 754 mmHg 79%
    06:00 +8°C° 0 mm 2 m/S 755 mmHg 76%
    07:00 +9°C° 0 mm 2 m/S 755 mmHg 73%
    08:00 +10°C° 0 mm 2 m/S 755 mmHg 66%
    09:00 +12°C° 0 mm 2 m/S 755 mmHg 59%
    10:00 +14°C° 0 mm 2 m/S 755 mmHg 52%
    11:00 +13°C° 0 mm 3 m/S 755 mmHg 49%
    12:00 +14°C° 0 mm 3 m/S 754 mmHg 45%
    13:00 +16°C° 0 mm 3 m/S 754 mmHg 42%
    14:00 +16°C° 0,1 mm 3 m/S 754 mmHg 42%
    15:00 +16°C° 0,1 mm 3 m/S 754 mmHg 42%
    16:00 +16°C° 0,1 mm 3 m/S 753 mmHg 42%
    17:00 +15°C° 0,1 mm 2 m/S 753 mmHg 48%
    18:00 +14°C° 0,1 mm 2 m/S 753 mmHg 54%
    19:00 +12°C° 0,1 mm 1 m/S 753 mmHg 60%
    20:00 +11°C° 0,1 mm 1 m/S 754 mmHg 65%
    21:00 +10°C° 0,1 mm 1 m/S 754 mmHg 70%
    22:00 +9°C° 0,1 mm 1 m/S 754 mmHg 74%
    23:00 +8°C° 0 mm 1 m/S 754 mmHg 76%
    Mehr zeigen